Voltar ao catálogo

COSMOS 594

AtivoMilitarLEO
NORAD 6851·PAYLOAD·🇷🇺 Russia

Lançado Oct 2, 1973 de Plesetsk Cosmodrome

Loading…

Próximas Passagens (próximas 24 horas)

TLE

AtualizadoSource: Space-Track

Época: Sep 14, 2026, 04:32 UTC

1 06851U 73069G   26257.18916837  .00000010  00000-0  15434-3 0  9991
2 06851  74.0020 158.0876 0067620 212.1670 302.3034 12.57652069430836

Acompanhe COSMOS 594 em tempo real com AllMySat

Download on the App Store